Temp
1 0 1 -0 -1 -0 0 0 1 1 1 1 2 2 2 1 1 2 2 2 3 3 2 2 2 2 2
-0 -1 0 -0 -0 -0 -1 -0 0 0 1 1 1 1 2 2 2 2 2 3 2 3 2 2 2 2 3
0 -1 -0 -0 -1 -1 -1 -0 -0 -0 -0 -0 0 0 1 1 2 1 1 1 1 2 2 2 2 2 2
0 -1 -1 -1 -1 -1 -1 -1 -1 -1 -1 -0 -0 0 0 1 1 1 1 1 1 2 2 2 2 1 2
1 -1 -1 -0 -1 -2 -1 -2 -1 -1 -0 -0 0 0 0 0 0 0 0 0 0 1 2 2 2 1 2
1 -1 -1 -1 -1 -1 -1 -1 -2 -2 -2 -1 -0 -0 -0 -1 -0 -0 0 -0 0 0 0 0 1 1 1
-1 -1 -1 -1 -1 -1 -2 -1 -2 -2 -2 -1 -1 -1 -1 -1 -1 -1 -1 -0 -0 -0 -0 -0 1 0 2
-3 -2 -2 -1 -1 -1 -1 -2 -2 -3 -2 -1 -1 -1 -1 -1 -1 -1 -1 -1 -1 -1 -0 -0 1 1 1
-2 -2 -2 -1 -2 -1 -2 -2 -2 -2 -2 -2 -1 -1 -1 -1 -1 -1 -1 -2 -1 -1 -1 -1 -1 -0 0
-2 -1 -1 -1 -2 -2 -2 -2 -1 -1 -2 -2 -2 -2 -2 -1 -1 -1 -1 -1 -1 -1 -1 -1 -1 -0 -0
-3 -3 -2 -2 -2 -2 -2 -2 -2 -2 -2 -2 -2 -2 -2 -2 -1 -1 -2 -1 -2 -1 -1 -2 -2 -1 -1
-4 -3 -3 -3 -3 -3 -2 -2 -1 -2 -2 -2 -2 -2 -2 -2 -2 -2 -2 -2 -2 -2 -2 -2 -2 -2 -2
-4 -4 -3 -3 -4 -3 -3 -2 -2 -3 -2 -2 -2 -2 -2 -2 -2 -2 -2 -2 -2 -2 -3 -2 -3 -3 -3
-4 -4 -4 -5 -3 -3 -3 -4 -4 -3 -3 -3 -3 -3 -2 -3 -3 -3 -3 -3 -3 -3 -3 -3 -3 -4 -4
-4 -4 -3 -4 -4 -5 -4 -3 -3 -3 -3 -3 -3 -3 -3 -3 -3 -3 -3 -3 -3 -3 -3 -2 -3 -3 -3
-5 -4 -4 -4 -4 -4 -4 -3 -3 -3 -3 -3 -3 -3 -3 -3 -3 -3 -3 -3 -2 -3 -3 -3 -3 -3 -3
-5 -5 -5 -4 -5 -4 -4 -4 -4 -4 -4 -4 -3 -3 -3 -3 -3 -3 -3 -3 -4 -3 -3 -4 -4 -3 -4
Height
2996 2998 2999 3002 3003 3003 3003 3003 3003 3004 3005 3007 3010 3013 3016 3018 3020 3022 3025 3029 3032 3034 3037 3040 3041 3045 3048
2987 2988 2990 2992 2993 2995 2994 2993 2992 2992 2994 2994 2995 2999 3002 3004 3007 3009 3012 3016 3019 3022 3024 3028 3030 3035 3038
2976 2979 2980 2983 2983 2984 2984 2983 2982 2983 2983 2984 2985 2988 2990 2992 2993 2996 2999 3002 3006 3009 3014 3015 3007 3021 3027
2967 2969 2971 2973 2972 2974 2973 2973 2973 2973 2974 2974 2976 2977 2978 2980 2984 2986 2988 2992 2995 2999 3003 3006 3008 3012 3016
2958 2960 2962 2963 2963 2964 2963 2964 2964 2964 2963 2964 2963 2963 2966 2968 2970 2974 2977 2981 2984 2988 2991 2995 2998 3001 3005
2949 2951 2953 2954 2955 2955 2953 2954 2954 2956 2954 2954 2954 2954 2955 2956 2956 2959 2965 2970 2973 2976 2979 2983 2986 2990 2993
2940 2943 2944 2947 2946 2947 2945 2945 2945 2947 2946 2945 2947 2947 2947 2948 2947 2951 2954 2956 2959 2962 2965 2971 2974 2978 2981
2933 2935 2936 2937 2938 2937 2937 2938 2938 2938 2939 2938 2939 2940 2939 2940 2942 2943 2945 2948 2950 2951 2954 2961 2964 2966 2968
2925 2926 2926 2927 2928 2928 2929 2929 2930 2932 2932 2932 2933 2934 2934 2936 2937 2939 2940 2942 2944 2946 2949 2951 2954 2956 2958
2918 2918 2917 2916 2917 2918 2920 2920 2921 2924 2926 2926 2927 2928 2929 2931 2932 2933 2935 2937 2938 2940 2942 2943 2944 2946 2948
2912 2911 2910 2909 2908 2909 2911 2912 2913 2915 2917 2918 2920 2921 2922 2924 2926 2927 2928 2930 2931 2933 2935 2937 2937 2938 2940
2906 2905 2905 2905 2905 2904 2905 2904 2905 2907 2909 2910 2913 2914 2916 2917 2919 2920 2922 2922 2925 2926 2928 2929 2931 2934 2934
2900 2900 2901 2901 2901 2900 2900 2901 2901 2903 2903 2905 2906 2907 2910 2912 2913 2914 2915 2916 2918 2920 2922 2923 2925 2927 2928
2894 2894 2895 2896 2896 2896 2897 2897 2898 2899 2900 2900 2902 2904 2905 2906 2908 2910 2911 2913 2914 2916 2918 2920 2921 2921 2922
2887 2888 2889 2891 2891 2891 2892 2894 2894 2895 2896 2897 2898 2900 2902 2904 2906 2907 2908 2910 2911 2912 2914 2916 2918 2918 2920
2880 2882 2883 2885 2886 2887 2888 2888 2890 2891 2893 2894 2895 2896 2899 2900 2902 2903 2904 2906 2907 2909 2911 2912 2913 2914 2915
2873 2875 2877 2879 2881 2883 2884 2884 2885 2887 2888 2890 2891 2893 2894 2896 2898 2899 2900 2900 2902 2903 2905 2905 2905 2907 2908
Wind_Speed
37 31 28 29 31 34 36 38 42 41 42 45 49 51 50 50 51 54 53 50 49 49 49 43 42 51 43
35 28 31 32 27 34 36 40 39 40 40 42 44 49 52 53 53 53 56 59 54 51 52 50 54 44 44
37 33 36 39 34 37 38 34 36 35 37 37 36 41 45 49 50 50 46 46 50 48 47 48 39 45 45
38 34 34 27 37 31 35 35 34 33 31 30 37 40 44 45 46 49 51 49 46 43 46 46 44 40 41
40 35 31 34 32 30 33 28 31 31 34 37 36 32 42 44 47 49 47 51 46 42 39 41 44 44 44
35 32 29 30 30 32 32 29 30 29 30 28 29 30 31 39 38 47 54 49 50 49 46 44 44 47 45
28 28 33 31 29 33 29 30 29 30 27 20 26 27 32 29 28 37 44 44 48 56 48 44 45 43 49
29 28 33 32 34 31 33 33 31 32 28 28 25 25 19 16 20 21 28 31 38 40 43 40 40 37 37
27 31 36 36 36 37 31 31 28 23 27 30 28 26 20 20 23 21 21 26 27 31 35 38 37 35 34
24 27 30 34 37 34 34 31 31 28 26 28 27 28 28 25 24 27 24 27 21 22 25 30 32 34 37
20 20 18 17 19 23 24 24 26 26 28 31 28 25 24 29 31 28 28 29 23 27 27 24 23 21 24
22 19 15 13 13 17 18 17 18 21 21 24 25 25 22 20 23 23 23 24 24 26 25 25 23 24 22
23 19 15 13 13 10 8 13 15 16 14 16 22 18 19 24 28 21 21 19 18 18 19 20 21 22 26
22 22 20 20 18 17 17 15 15 14 14 13 11 12 14 12 14 14 12 12 15 17 17 15 17 16 14
23 23 21 21 20 19 18 14 14 13 11 12 16 16 14 14 15 15 14 14 15 15 15 17 18 17 18
22 22 22 21 19 18 15 14 13 13 12 12 12 13 16 16 15 15 15 16 17 18 17 18 20 21 22
22 21 21 21 18 18 17 15 15 15 15 15 15 15 16 16 17 17 18 19 19 20 21 22 23 23 24
Wind_Direction
280 286 279 280 274 269 268 267 262 262 260 257 251 249 251 247 246 246 249 249 253 254 255 256 257 251 261
278 278 279 278 271 269 274 270 268 268 263 259 254 249 249 252 250 251 253 253 253 253 253 256 256 258 258
275 264 265 268 286 275 271 268 269 267 266 261 258 253 251 251 253 250 252 249 247 249 249 249 247 255 253
271 266 266 275 271 271 273 273 270 265 267 268 261 255 251 246 254 253 251 250 250 251 248 250 256 258 258
270 267 264 274 274 273 273 277 286 271 263 264 273 268 247 251 247 251 251 252 250 247 245 247 250 247 251
266 257 263 269 276 267 273 273 277 279 279 269 265 267 265 264 254 249 247 258 251 246 242 247 248 246 252
259 250 270 262 270 268 272 275 271 281 274 270 260 269 269 259 249 250 251 252 251 245 244 250 259 257 262
251 256 250 263 260 257 271 267 275 277 259 262 264 275 269 261 271 259 244 245 245 248 247 247 259 261 260
255 255 260 257 255 264 259 263 267 277 259 261 261 263 256 255 254 262 252 261 254 250 256 259 260 261 259
265 263 266 266 259 254 265 270 260 262 257 262 259 259 253 259 265 263 255 256 263 249 267 264 262 258 258
275 269 278 273 270 261 259 267 250 258 254 257 257 255 251 257 261 265 259 261 248 251 265 264 264 261 265
272 264 258 267 270 264 257 252 242 253 249 253 260 249 249 264 261 250 267 261 258 262 261 243 234 250 232
266 256 250 236 237 246 253 244 233 237 249 245 251 239 246 259 263 264 258 251 241 238 237 234 242 245 238
254 251 248 237 240 243 259 266 222 251 245 241 232 227 225 239 229 228 232 232 234 236 232 234 239 241 226
252 251 249 248 248 241 248 247 234 238 240 237 232 229 230 239 243 241 243 244 239 242 241 241 246 247 245
249 250 250 249 249 247 242 241 239 236 236 235 233 230 231 237 239 242 245 247 250 253 252 249 250 251 253
247 245 247 248 249 250 249 245 243 243 241 239 239 239 242 244 245 246 250 250 249 251 254 256 259 258 258